Wind_Speed
2 2 2 2 3 3 4 4 5 5 6 7 7 8 8 8 7 8 8 9 10 10 11 10 11 11 12 12 13 13 13 13 13 13 14 13 13 12 11 11 10 10 9
5 5 4 4 4 4 5 5 5 6 6 7 7 7 8 8 8 7 7 8 8 9 9 10 10 11 12 12 12 13 13 14 14 14 15 15 14 13 12 11 11 9 8
7 7 7 7 7 7 7 7 7 7 7 7 7 7 7 7 7 7 7 7 7 7 8 8 8 9 10 11 11 11 12 13 14 14 14 14 13 12 11 10 9 8 7
8 9 9 9 9 9 9 9 8 8 8 8 7 7 7 7 6 6 6 6 6 6 6 7 7 7 8 9 9 9 10 10 11 11 11 12 11 10 9 8 7 6 5
10 11 12 12 12 12 12 11 11 11 10 10 9 9 8 8 7 7 7 7 6 6 5 5 5 6 6 6 6 6 7 7 7 7 8 8 8 8 7 7 6 5 4
12 13 13 14 15 15 15 15 14 14 13 13 12 11 11 10 9 8 7 7 7 6 5 5 5 5 5 5 5 4 4 4 4 4 5 5 5 5 5 4 4 4 4
14 14 15 15 17 18 18 18 18 17 16 16 15 15 14 12 11 10 9 8 7 7 6 5 5 4 4 4 4 3 3 3 3 3 3 4 4 4 4 4 4 4 4
17 17 16 16 17 19 19 20 20 20 20 20 19 18 17 16 15 13 12 11 9 8 7 6 5 5 4 3 3 3 3 3 3 3 3 4 5 5 4 4 4 5 5
21 21 21 20 20 20 20 20 20 21 22 23 23 22 20 19 18 17 15 14 12 11 9 8 7 6 5 4 3 3 4 4 4 4 4 5 5 6 5 5 5 5 5
25 26 25 24 23 23 21 21 21 22 23 24 25 25 24 23 21 20 18 17 16 14 13 11 9 8 7 5 5 4 4 5 5 5 5 6 6 6 6 5 5 5 6
31 31 31 30 29 27 27 25 25 25 24 24 24 25 25 25 24 22 21 20 19 18 16 15 13 11 9 8 7 6 6 6 6 6 6 6 6 6 6 6 6 6 7
33 34 35 36 35 34 33 33 32 29 28 27 25 25 25 25 25 25 24 23 22 21 20 18 16 15 13 11 10 8 7 7 7 7 7 7 7 7 6 6 6 6 7
33 35 36 37 38 38 38 39 38 37 35 34 31 28 27 25 26 26 26 25 25 24 22 21 20 18 16 15 13 12 10 9 9 9 9 9 8 8 7 7 7 7 7
32 33 34 35 36 38 39 40 41 41 41 39 37 34 31 29 29 28 26 27 27 26 25 23 22 21 20 19 17 16 14 12 11 11 10 10 9 9 8 8 8 8 7
30 31 31 32 33 33 35 37 39 41 42 42 41 40 38 36 33 32 30 27 28 28 27 27 26 23 22 21 21 20 18 16 15 14 13 12 11 11 10 9 9 8 8
27 28 29 29 30 30 31 32 34 36 39 42 43 43 42 41 40 36 34 32 30 29 29 28 29 27 25 23 23 23 22 20 19 17 16 15 14 13 12 11 10 10 9
24 24 25 26 27 28 28 29 30 31 33 36 39 42 43 43 43 42 39 37 34 33 32 29 29 29 28 27 26 25 25 24 23 21 19 18 17 16 15 14 13 12 11
22 22 22 23 24 25 25 26 27 28 30 32 34 37 40 42 43 44 43 42 39 37 36 34 31 30 30 30 29 28 27 26 26 25 23 22 20 19 17 16 15 14 13
20 21 21 21 21 21 21 23 24 25 27 28 30 33 36 39 41 42 43 43 43 41 39 37 35 34 32 31 29 30 29 28 28 28 27 26 24 22 21 19 18 17 16
20 19 19 18 18 17 18 19 20 21 24 25 27 29 33 36 38 40 42 43 43 43 43 41 40 38 35 33 32 31 31 30 31 31 30 29 28 26 24 23 21 20 19
19 19 18 18 16 16 15 15 15 16 18 20 23 25 28 31 35 37 40 41 42 43 43 43 43 42 40 38 36 35 34 33 33 32 33 32 31 30 29 27 25 24 22
20 19 19 18 17 16 15 14 14 13 14 15 17 20 23 26 30 34 37 40 41 42 42 43 43 43 42 41 40 39 37 36 35 34 34 33 33 33 32 31 29 27 26
20 19 19 18 18 17 16 14 13 13 12 13 14 16 19 22 25 29 33 37 40 42 43 43 44 44 43 42 41 42 41 39 38 36 36 35 35 35 35 34 33 31 29
19 19 19 19 18 18 17 15 14 13 12 12 12 13 15 17 21 24 27 31 35 38 41 43 44 44 44 43 43 42 43 42 41 38 37 36 36 36 37 36 36 35 34
19 19 19 19 19 19 18 17 15 14 13 12 12 13 13 15 17 20 23 27 30 34 37 40 42 44 44 44 44 43 43 43 43 41 39 38 38 38 38 38 37 37 36
20 19 19 19 19 19 19 18 16 15 14 13 13 12 13 14 15 17 19 23 26 30 34 37 40 42 44 45 45 45 44 44 43 44 43 41 39 39 39 40 39 38 38
Wind_Direction
246 224 196 170 161 164 167 168 166 161 157 155 157 157 161 166 170 178 188 198 206 213 219 225 231 237 240 242 245 248 254 257 261 268 270 272 277 283 287 294 300 303 308
259 247 235 223 213 204 197 192 187 183 177 170 166 165 165 165 167 174 185 194 203 211 216 223 231 237 239 241 246 251 255 259 262 266 267 268 272 275 280 284 290 293 294
270 259 249 242 235 226 216 209 204 200 196 188 180 177 173 170 170 174 182 190 198 207 212 219 227 236 238 242 249 253 256 260 263 263 262 263 267 270 275 279 281 282 280
279 275 261 250 247 241 233 225 219 215 211 206 198 192 187 184 181 180 182 187 193 202 210 216 223 232 237 242 247 254 259 260 263 259 258 260 262 264 267 268 270 266 262
286 284 272 258 251 247 242 236 231 227 223 218 213 209 204 200 197 193 193 192 193 198 204 211 219 228 235 239 245 253 255 255 256 256 255 254 255 254 254 254 253 245 236
293 290 281 265 257 249 243 240 237 233 231 227 223 220 217 213 209 206 203 201 201 202 204 208 216 224 233 236 239 242 240 237 238 241 241 240 242 240 237 236 225 214 209
294 295 292 275 264 257 250 243 241 238 236 233 230 227 224 222 220 217 213 210 207 206 205 205 211 218 224 227 225 221 219 217 211 216 211 206 209 205 203 202 197 190 188
290 291 290 285 274 265 257 250 247 244 241 238 236 232 230 228 225 223 221 218 215 214 213 212 213 217 217 215 206 200 196 191 187 175 172 179 183 181 178 175 176 176 177
282 279 278 278 277 269 262 257 256 253 251 247 240 237 236 233 231 229 226 225 223 222 221 222 221 221 219 212 199 187 181 176 167 158 158 164 169 170 167 164 165 167 167
279 276 275 272 270 267 263 258 258 258 258 254 249 244 241 238 234 232 232 231 230 229 228 228 228 227 225 220 211 196 180 169 166 166 163 162 163 164 163 159 156 156 158
277 275 272 268 266 263 260 260 260 261 260 257 257 254 249 242 237 235 235 235 234 232 231 231 231 231 230 227 222 210 193 182 181 179 173 168 167 165 161 163 159 155 154
278 275 272 269 267 264 261 260 260 259 258 257 258 257 253 247 242 239 239 236 235 235 233 233 233 232 232 231 227 221 211 200 193 190 185 179 175 171 166 164 160 155 153
281 277 274 272 269 266 264 262 262 261 260 259 257 256 255 255 248 245 241 237 235 235 235 234 234 233 232 232 231 227 221 213 203 196 193 188 184 180 174 170 166 160 158
285 282 279 276 273 270 267 265 263 261 260 260 258 255 255 254 250 248 245 241 237 236 237 236 235 234 234 234 233 230 226 220 213 206 201 197 192 189 183 179 175 171 169
288 285 283 281 278 274 271 268 265 262 259 259 258 256 255 254 251 250 245 245 242 238 238 239 236 234 234 235 234 233 230 225 220 215 210 206 201 197 193 188 185 181 177
296 292 288 284 280 277 274 271 268 264 261 258 257 256 255 253 252 251 248 246 245 241 240 241 237 236 238 238 236 235 233 229 225 222 219 215 211 207 204 200 196 192 188
306 301 296 290 286 281 277 274 270 266 262 259 256 255 255 254 252 251 249 247 248 245 243 243 241 237 238 239 237 237 235 233 229 227 225 222 219 215 212 210 207 204 201
317 312 306 300 293 287 281 276 271 267 264 260 257 255 254 254 252 251 250 249 248 248 246 244 242 240 240 240 239 237 235 234 232 230 229 227 224 221 219 217 215 213 211
328 323 318 312 304 295 287 280 274 269 265 262 260 257 254 253 251 250 250 250 248 248 248 248 245 242 242 241 240 237 237 235 235 233 231 230 228 226 224 223 222 220 218
336 334 330 325 319 310 300 290 281 273 268 265 262 259 255 253 251 250 249 249 249 249 249 248 248 245 244 243 242 240 239 238 238 236 233 232 231 230 229 227 227 226 224
343 342 341 337 332 326 318 308 296 285 275 269 266 262 258 254 250 248 248 248 247 248 248 248 248 247 246 244 244 243 242 239 239 239 236 233 233 232 232 230 230 230 228
347 346 346 345 342 338 332 325 317 304 290 279 273 267 262 256 252 249 248 247 247 246 246 247 247 247 246 244 243 242 242 239 239 239 237 236 234 233 233 232 231 231 231
350 351 352 352 350 348 343 337 328 320 307 294 284 276 269 262 256 252 249 247 246 246 245 245 245 247 246 245 243 241 241 241 240 238 237 238 236 235 234 233 232 232 233
356 356 357 357 356 354 351 346 338 330 322 311 300 290 280 271 263 256 252 249 247 246 245 245 245 245 245 244 243 242 240 240 241 239 237 237 237 235 234 234 234 233 233
1 1 0 0 0 359 357 353 348 341 333 323 312 304 295 285 275 265 256 251 249 247 246 245 245 244 244 243 242 242 241 240 240 239 238 237 237 236 235 235 235 234 234
6 6 5 6 6 4 4 2 358 352 346 338 327 316 306 296 286 276 265 257 253 250 248 246 245 244 243 242 242 242 241 241 240 239 238 238 238 237 235 235 236 236 235
Height
5913 5912 5911 5910 5909 5909 5908 5907 5907 5906 5905 5905 5904 5903 5903 5903 5902 5902 5902 5903 5903 5903 5904 5904 5904 5905 5905 5906 5906 5906 5907 5907 5907 5907 5907 5907 5907 5907 5907 5906 5906 5905 5905
5912 5911 5910 5910 5909 5908 5908 5907 5906 5906 5905 5904 5904 5903 5902 5902 5902 5901 5901 5901 5902 5902 5902 5902 5903 5903 5903 5903 5904 5904 5904 5904 5905 5905 5905 5905 5905 5905 5905 5905 5905 5904 5904
5911 5910 5909 5909 5908 5907 5907 5906 5906 5905 5905 5904 5903 5903 5902 5901 5901 5901 5900 5900 5901 5901 5901 5901 5901 5901 5901 5902 5902 5902 5902 5902 5902 5902 5902 5902 5903 5903 5903 5903 5903 5903 5903
5909 5908 5907 5907 5906 5906 5905 5905 5904 5904 5903 5903 5902 5902 5901 5901 5900 5900 5900 5900 5900 5900 5900 5900 5900 5900 5900 5900 5900 5900 5900 5900 5899 5899 5900 5900 5901 5901 5902 5902 5902 5902 5902
5908 5906 5905 5904 5904 5903 5903 5903 5902 5902 5902 5901 5901 5900 5900 5900 5899 5899 5899 5899 5899 5899 5899 5898 5898 5898 5898 5898 5898 5898 5898 5898 5897 5898 5898 5898 5899 5899 5900 5900 5901 5901 5901
5905 5904 5902 5901 5900 5900 5899 5899 5899 5899 5899 5899 5899 5899 5898 5898 5898 5898 5898 5897 5897 5897 5898 5897 5897 5897 5897 5897 5897 5897 5896 5896 5896 5896 5897 5897 5897 5898 5899 5899 5899 5900 5900
5903 5901 5899 5898 5897 5896 5895 5895 5895 5895 5896 5896 5896 5896 5896 5896 5896 5896 5896 5896 5896 5896 5896 5896 5896 5896 5896 5896 5896 5896 5895 5895 5895 5895 5895 5896 5897 5897 5898 5898 5899 5899 5900
5899 5898 5896 5894 5893 5892 5891 5891 5891 5890 5891 5891 5891 5892 5892 5893 5893 5894 5894 5894 5894 5895 5895 5895 5895 5895 5895 5895 5895 5895 5895 5894 5894 5894 5895 5896 5896 5897 5897 5898 5898 5899 5899
5895 5894 5892 5890 5889 5887 5887 5886 5886 5886 5886 5886 5886 5887 5888 5889 5890 5890 5891 5892 5892 5893 5893 5893 5894 5894 5894 5894 5894 5894 5894 5894 5894 5894 5894 5895 5896 5897 5897 5897 5898 5898 5899
5891 5889 5887 5886 5884 5883 5882 5881 5881 5881 5881 5881 5881 5882 5883 5884 5885 5886 5887 5888 5889 5890 5891 5891 5892 5892 5893 5893 5893 5893 5893 5893 5893 5894 5894 5895 5896 5896 5897 5897 5898 5898 5899
5885 5883 5881 5880 5879 5878 5877 5876 5875 5876 5876 5876 5876 5876 5877 5878 5879 5881 5883 5884 5885 5886 5887 5888 5889 5890 5891 5891 5892 5892 5892 5892 5893 5893 5894 5895 5895 5896 5897 5897 5898 5898 5899
5877 5875 5874 5873 5872 5871 5870 5870 5870 5870 5870 5871 5871 5871 5871 5872 5873 5875 5877 5879 5881 5882 5883 5885 5886 5887 5888 5889 5890 5890 5891 5891 5892 5892 5893 5894 5895 5896 5896 5897 5898 5898 5899
5869 5867 5866 5864 5863 5863 5862 5862 5862 5863 5864 5864 5865 5865 5866 5867 5868 5870 5871 5873 5875 5877 5879 5880 5882 5883 5885 5886 5888 5889 5889 5890 5891 5891 5892 5893 5894 5895 5896 5897 5897 5898 5899
5862 5859 5857 5856 5855 5854 5853 5853 5854 5855 5856 5857 5858 5859 5860 5862 5863 5864 5865 5867 5869 5871 5873 5875 5877 5879 5881 5882 5884 5886 5887 5888 5889 5890 5891 5892 5893 5894 5895 5896 5897 5898 5899
5855 5852 5850 5848 5846 5845 5845 5845 5845 5846 5847 5848 5850 5851 5853 5855 5857 5858 5860 5862 5864 5865 5867 5870 5872 5874 5876 5878 5880 5882 5884 5886 5887 5888 5889 5890 5892 5893 5894 5895 5896 5897 5898
5848 5846 5843 5841 5839 5838 5837 5836 5836 5836 5837 5839 5840 5842 5844 5847 5849 5852 5854 5856 5858 5859 5861 5864 5866 5868 5871 5873 5875 5878 5880 5882 5884 5885 5887 5888 5890 5891 5892 5894 5895 5896 5897
5843 5840 5837 5834 5832 5830 5829 5828 5828 5828 5828 5830 5831 5833 5835 5837 5840 5843 5846 5848 5851 5853 5855 5857 5860 5862 5865 5867 5870 5872 5875 5878 5880 5882 5884 5885 5887 5888 5890 5892 5893 5895 5896
5838 5835 5831 5828 5825 5823 5822 5821 5820 5820 5821 5821 5823 5824 5826 5828 5831 5833 5837 5840 5843 5845 5848 5851 5854 5856 5859 5861 5864 5867 5869 5872 5875 5877 5880 5882 5884 5885 5887 5889 5891 5892 5894
5835 5831 5827 5823 5820 5817 5816 5814 5814 5813 5813 5814 5815 5816 5817 5819 5821 5824 5827 5831 5834 5837 5840 5843 5847 5849 5852 5855 5857 5861 5863 5866 5869 5872 5874 5877 5879 5882 5884 5886 5888 5889 5891
5833 5828 5824 5820 5816 5813 5811 5809 5808 5807 5807 5807 5807 5808 5809 5810 5812 5815 5818 5821 5825 5828 5832 5835 5839 5842 5845 5848 5851 5854 5857 5860 5862 5865 5868 5871 5874 5877 5879 5882 5884 5886 5888
5831 5826 5822 5817 5814 5810 5807 5805 5803 5802 5801 5801 5801 5801 5802 5803 5805 5807 5810 5813 5816 5820 5823 5827 5830 5834 5837 5841 5844 5847 5850 5853 5856 5859 5861 5865 5868 5871 5874 5877 5879 5882 5884
5829 5825 5820 5816 5812 5808 5805 5802 5800 5798 5797 5796 5796 5795 5795 5796 5797 5799 5802 5804 5808 5811 5814 5818 5821 5825 5828 5832 5836 5839 5842 5846 5849 5851 5854 5858 5861 5865 5868 5871 5874 5877 5879
5828 5824 5819 5815 5811 5807 5803 5800 5798 5796 5794 5793 5792 5791 5790 5790 5791 5792 5794 5796 5799 5802 5805 5808 5812 5815 5819 5823 5826 5830 5834 5838 5841 5844 5847 5850 5854 5858 5861 5864 5867 5871 5873
5828 5823 5819 5814 5810 5806 5802 5798 5795 5793 5791 5790 5788 5787 5786 5785 5785 5786 5787 5788 5790 5793 5796 5799 5803 5806 5810 5813 5817 5821 5825 5829 5832 5835 5839 5842 5846 5849 5853 5857 5860 5864 5867
5827 5823 5818 5814 5810 5805 5801 5797 5794 5791 5789 5787 5785 5784 5783 5781 5780 5780 5780 5781 5783 5785 5787 5790 5793 5796 5800 5803 5807 5811 5815 5819 5823 5827 5831 5835 5838 5841 5845 5849 5853 5856 5860
5827 5823 5818 5814 5810 5805 5801 5797 5793 5790 5787 5785 5783 5781 5779 5778 5776 5775 5775 5775 5776 5778 5779 5781 5784 5786 5789 5793 5797 5801 5805 5810 5814 5818 5822 5826 5829 5833 5836 5840 5845 5849 5852